QPF
0.00 0.00 0.00 0.00 0.00 0.00 0.00 0.00 0.00 0.00 0.00 0.00 0.00 0.00 0.00 0.00 0.00 0.00 0.00 0.00 0.00 0.00 0.00 0.00 0.00 0.00 0.00 0.00 0.00 0.00 0.01 0.00 0.00 0.00 0.00 0.00 0.00 0.00 0.00 0.00 0.00 0.00 0.00 0.00 0.00 0.00 0.00 0.00 0.00 0.00 0.00 0.00 0.00 0.00
0.00 0.00 0.00 0.00 0.00 0.00 0.00 0.00 0.00 0.00 0.00 0.00 0.00 0.00 0.00 0.00 0.00 0.00 0.00 0.00 0.00 0.00 0.00 0.00 0.00 0.00 0.00 0.00 0.00 0.00 0.01 0.00 0.00 0.00 0.00 0.00 0.00 0.00 0.00 0.00 0.00 0.00 0.00 0.00 0.00 0.00 0.00 0.00 0.00 0.00 0.00 0.00 0.00 0.00
0.00 0.00 0.00 0.00 0.00 0.00 0.00 0.00 0.00 0.00 0.00 0.00 0.00 0.00 0.00 0.00 0.00 0.00 0.00 0.00 0.00 0.00 0.00 0.00 0.00 0.00 0.00 0.00 0.00 0.00 0.00 0.01 0.00 0.00 0.00 0.00 0.00 0.00 0.00 0.00 0.00 0.00 0.00 0.00 0.00 0.00 0.00 0.00 0.00 0.00 0.00 0.00 0.00 0.00
0.00 0.00 0.00 0.00 0.00 0.00 0.00 0.00 0.00 0.00 0.00 0.00 0.00 0.00 0.00 0.00 0.00 0.00 0.00 0.00 0.00 0.00 0.00 0.00 0.00 0.00 0.00 0.00 0.00 0.00 0.00 0.00 0.00 0.00 0.00 0.00 0.00 0.00 0.00 0.00 0.00 0.00 0.00 0.00 0.00 0.00 0.00 0.00 0.00 0.00 0.00 0.00 0.00 0.00
0.00 0.00 0.00 0.00 0.00 0.00 0.00 0.00 0.00 0.00 0.00 0.00 0.00 0.00 0.00 0.00 0.00 0.00 0.00 0.00 0.00 0.00 0.00 0.00 0.00 0.00 0.00 0.00 0.00 0.00 0.00 0.00 0.00 0.00 0.00 0.00 0.00 0.00 0.00 0.00 0.00 0.00 0.00 0.00 0.00 0.00 0.00 0.00 0.00 0.00 0.00 0.00 0.00 0.00
0.00 0.00 0.00 0.00 0.00 0.00 0.00 0.00 0.00 0.00 0.00 0.00 0.00 0.00 0.00 0.00 0.00 0.00 0.00 0.00 0.00 0.00 0.00 0.00 0.00 0.00 0.00 0.00 0.00 0.00 0.00 0.00 0.00 0.00 0.00 0.00 0.00 0.00 0.00 0.00 0.00 0.00 0.00 0.00 0.00 0.00 0.00 0.00 0.00 0.00 0.00 0.00 0.00 0.00
0.00 0.00 0.00 0.00 0.00 0.00 0.00 0.00 0.00 0.00 0.00 0.00 0.00 0.00 0.00 0.00 0.00 0.00 0.00 0.00 0.00 0.00 0.01 0.00 0.00 0.00 0.00 0.00 0.00 0.00 0.00 0.00 0.00 0.00 0.00 0.00 0.00 0.00 0.00 0.00 0.00 0.00 0.00 0.00 0.00 0.00 0.00 0.00 0.00 0.00 0.00 0.00 0.00 0.00
0.00 0.00 0.00 0.00 0.00 0.00 0.00 0.00 0.00 0.00 0.00 0.00 0.00 0.00 0.00 0.00 0.00 0.00 0.00 0.00 0.00 0.00 0.00 0.01 0.00 0.00 0.00 0.00 0.00 0.00 0.00 0.00 0.00 0.00 0.00 0.00 0.00 0.00 0.00 0.00 0.00 0.00 0.00 0.00 0.00 0.00 0.00 0.00 0.00 0.00 0.00 0.00 0.00 0.00
0.00 0.01 0.01 0.00 0.00 0.00 0.00 0.00 0.00 0.00 0.00 0.00 0.00 0.00 0.00 0.00 0.00 0.00 0.00 0.00 0.00 0.00 0.00 0.01 0.01 0.00 0.00 0.00 0.00 0.00 0.00 0.00 0.00 0.00 0.00 0.00 0.00 0.00 0.00 0.00 0.00 0.00 0.00 0.00 0.00 0.00 0.00 0.00 0.00 0.00 0.00 0.00 0.00 0.00
0.00 0.01 0.01 0.00 0.00 0.00 0.00 0.00 0.00 0.00 0.00 0.00 0.00 0.00 0.00 0.00 0.00 0.00 0.00 0.00 0.00 0.00 0.00 0.00 0.00 0.00 0.00 0.00 0.00 0.00 0.00 0.00 0.00 0.00 0.00 0.00 0.00 0.00 0.00 0.00 0.00 0.00 0.00 0.00 0.00 0.00 0.00 0.00 0.00 0.00 0.00 0.00 0.00 0.00
0.00 0.00 0.01 0.01 0.00 0.00 0.00 0.00 0.00 0.00 0.00 0.00 0.00 0.00 0.00 0.00 0.00 0.00 0.01 0.00 0.00 0.00 0.00 0.00 0.00 0.00 0.00 0.00 0.00 0.00 0.00 0.00 0.00 0.00 0.00 0.00 0.00 0.00 0.00 0.00 0.00 0.00 0.00 0.00 0.00 0.00 0.00 0.00 0.00 0.00 0.00 0.00 0.00 0.00
0.00 0.00 0.00 0.00 0.00 0.00 0.00 0.00 0.00 0.00 0.00 0.00 0.00 0.00 0.00 0.00 0.00 0.00 0.00 0.01 0.00 0.00 0.01 0.01 0.00 0.00 0.00 0.01 0.02 0.01 0.01 0.00 0.00 0.00 0.00 0.00 0.00 0.00 0.00 0.00 0.00 0.00 0.00 0.00 0.00 0.00 0.00 0.00 0.00 0.00 0.00 0.00 0.00 0.00
0.00 0.00 0.00 0.00 0.00 0.00 0.00 0.00 0.00 0.00 0.00 0.00 0.00 0.00 0.00 0.00 0.00 0.00 0.01 0.02 0.02 0.02 0.01 0.01 0.01 0.00 0.00 0.00 0.01 0.01 0.02 0.01 0.00 0.00 0.00 0.00 0.00 0.00 0.00 0.00 0.00 0.00 0.00 0.00 0.00 0.00 0.00 0.00 0.00 0.00 0.00 0.00 0.00 0.00
0.01 0.00 0.00 0.00 0.00 0.00 0.00 0.00 0.00 0.00 0.00 0.00 0.00 0.00 0.00 0.00 0.00 0.00 0.01 0.01 0.00 0.00 0.00 0.00 0.00 0.01 0.00 0.00 0.00 0.00 0.00 0.00 0.00 0.00 0.00 0.00 0.00 0.00 0.00 0.00 0.00 0.00 0.00 0.00 0.00 0.00 0.00 0.00 0.00 0.00 0.00 0.00 0.00 0.00
0.00 0.01 0.00 0.00 0.00 0.00 0.00 0.00 0.00 0.00 0.00 0.00 0.01 0.01 0.00 0.00 0.00 0.00 0.00 0.00 0.00 0.00 0.00 0.00 0.01 0.03 0.05 0.02 0.02 0.00 0.00 0.00 0.00 0.00 0.00 0.01 0.00 0.00 0.00 0.00 0.00 0.00 0.00 0.00 0.00 0.00 0.00 0.00 0.00 0.00 0.00 0.00 0.00 0.00
0.00 0.00 0.00 0.00 0.00 0.00 0.00 0.00 0.00 0.00 0.00 0.00 0.00 0.00 0.00 0.00 0.00 0.00 0.00 0.00 0.01 0.01 0.00 0.00 0.02 0.02 0.02 0.01 0.01 0.02 0.01 0.00 0.01 0.04 0.05 0.03 0.02 0.01 0.00 0.00 0.00 0.00 0.00 0.00 0.00 0.00 0.00 0.00 0.00 0.00 0.00 0.00 0.00 0.00
0.00 0.00 0.00 0.00 0.00 0.00 0.00 0.00 0.00 0.00 0.00 0.00 0.00 0.00 0.00 0.00 0.00 0.00 0.00 0.00 0.00 0.00 0.01 0.00 0.01 0.02 0.02 0.02 0.02 0.01 0.01 0.00 0.02 0.04 0.06 0.04 0.01 0.01 0.00 0.00 0.00 0.00 0.00 0.00 0.00 0.00 0.00 0.00 0.00 0.00 0.00 0.00 0.00 0.00
0.00 0.00 0.00 0.00 0.00 0.00 0.00 0.00 0.00 0.01 0.00 0.00 0.00 0.00 0.00 0.00 0.00 0.00 0.00 0.00 0.00 0.00 0.00 0.01 0.00 0.01 0.02 0.02 0.01 0.01 0.00 0.00 0.01 0.01 0.00 0.00 0.00 0.00 0.00 0.00 0.00 0.00 0.00 0.00 0.00 0.00 0.00 0.01 0.00 0.00 0.00 0.00 0.00 0.00
0.00 0.00 0.00 0.00 0.00 0.00 0.00 0.00 0.00 0.00 0.00 0.00 0.00 0.00 0.00 0.00 0.00 0.00 0.00 0.00 0.00 0.00 0.00 0.00 0.00 0.00 0.00 0.00 0.00 0.01 0.01 0.00 0.01 0.00 0.00 0.00 0.00 0.00 0.00 0.00 0.00 0.00 0.00 0.00 0.00 0.00 0.00 0.00 0.00 0.00 0.00 0.00 0.00 0.00
0.00 0.00 0.00 0.00 0.00 0.00 0.01 0.01 0.00 0.00 0.00 0.00 0.00 0.00 0.00 0.00 0.00 0.00 0.00 0.00 0.00 0.00 0.00 0.00 0.00 0.00 0.00 0.00 0.00 0.00 0.00 0.00 0.00 0.00 0.00 0.00 0.00 0.00 0.00 0.00 0.00 0.00 0.00 0.00 0.00 0.00 0.00 0.00 0.00 0.00 0.00 0.00 0.00 0.00
0.00 0.00 0.00 0.00 0.00 0.00 0.00 0.00 0.00 0.00 0.00 0.00 0.00 0.00 0.00 0.00 0.00 0.00 0.00 0.00 0.00 0.00 0.00 0.00 0.00 0.00 0.00 0.00 0.00 0.00 0.00 0.00 0.00 0.00 0.00 0.00 0.00 0.00 0.00 0.00 0.00 0.00 0.00 0.00 0.00 0.00 0.00 0.00 0.00 0.00 0.00 0.00 0.00 0.00
0.01 0.00 0.00 0.00 0.00 0.00 0.00 0.00 0.00 0.00 0.00 0.00 0.00 0.00 0.00 0.00 0.00 0.00 0.00 0.00 0.00 0.00 0.00 0.00 0.00 0.00 0.00 0.00 0.00 0.00 0.00 0.00 0.00 0.00 0.00 0.00 0.00 0.00 0.00 0.00 0.00 0.00 0.00 0.00 0.00 0.00 0.00 0.00 0.00 0.00 0.00 0.00 0.00 0.00
0.00 0.00 0.00 0.00 0.00 0.00 0.00 0.00 0.00 0.00 0.00 0.00 0.00 0.00 0.00 0.00 0.00 0.00 0.00 0.00 0.00 0.00 0.00 0.00 0.00 0.00 0.00 0.00 0.00 0.00 0.00 0.00 0.00 0.00 0.00 0.00 0.00 0.00 0.00 0.00 0.00 0.00 0.00 0.00 0.00 0.00 0.00 0.00 0.00 0.00 0.00 0.01 0.00 0.01
0.00 0.00 0.00 0.01 0.00 0.00 0.00 0.00 0.00 0.00 0.00 0.00 0.01 0.01 0.00 0.00 0.00 0.00 0.01 0.02 0.01 0.01 0.01 0.00 0.00 0.00 0.00 0.00 0.00 0.00 0.00 0.00 0.00 0.00 0.00 0.00 0.00 0.00 0.00 0.00 0.00 0.00 0.00 0.00 0.00 0.00 0.00 0.00 0.00 0.00 0.01 0.02 0.07 0.11
0.00 0.00 0.00 0.00 0.00 0.00 0.00 0.00 0.00 0.00 0.01 0.01 0.01 0.00 0.00 0.00 0.00 0.00 0.01 0.01 0.00 0.01 0.00 0.00 0.00 0.00 0.00 0.00 0.00 0.00 0.00 0.00 0.00 0.00 0.00 0.00 0.00 0.00 0.00 0.00 0.00 0.00 0.00 0.00 0.00 0.00 0.00 0.00 0.00 0.00 0.00 0.01 0.07 0.11
0.00 0.00 0.00 0.00 0.00 0.00 0.00 0.00 0.00 0.00 0.00 0.01 0.00 0.00 0.01 0.00 0.01 0.00 0.00 0.00 0.00 0.00 0.00 0.01 0.00 0.00 0.00 0.00 0.00 0.00 0.00 0.00 0.00 0.00 0.00 0.00 0.00 0.00 0.00 0.00 0.00 0.00 0.00 0.00 0.00 0.00 0.00 0.00 0.00 0.00 0.00 0.01 0.04 0.02
0.00 0.00 0.00 0.00 0.00 0.00 0.00 0.00 0.00 0.00 0.00 0.01 0.01 0.00 0.01 0.00 0.00 0.00 0.01 0.02 0.00 0.00 0.00 0.00 0.00 0.00 0.00 0.00 0.00 0.00 0.00 0.00 0.00 0.00 0.00 0.02 0.02 0.00 0.00 0.00 0.00 0.00 0.00 0.00 0.00 0.00 0.00 0.00 0.00 0.00 0.00 0.00 0.00 0.00
0.00 0.00 0.00 0.00 0.00 0.00 0.00 0.00 0.00 0.00 0.01 0.00 0.00 0.00 0.00 0.00 0.00 0.00 0.00 0.00 0.00 0.00 0.00 0.00 0.00 0.00 0.00 0.00 0.00 0.00 0.00 0.00 0.00 0.00 0.00 0.00 0.00 0.00 0.00 0.00 0.00 0.00 0.00 0.00 0.00 0.00 0.00 0.00 0.00 0.00 0.00 0.00 0.00 0.00
0.00 0.00 0.00 0.00 0.00 0.00 0.00 0.00 0.00 0.01 0.01 0.00 0.00 0.00 0.00 0.00 0.00 0.00 0.01 0.02 0.01 0.01 0.00 0.00 0.00 0.00 0.00 0.00 0.00 0.00 0.00 0.00 0.00 0.00 0.00 0.00 0.00 0.00 0.00 0.00 0.00 0.00 0.00 0.00 0.00 0.00 0.00 0.00 0.00 0.00 0.00 0.00 0.00 0.00
0.00 0.00 0.00 0.00 0.00 0.00 0.00 0.00 0.01 0.00 0.00 0.00 0.00 0.00 0.00 0.01 0.02 0.01 0.00 0.00 0.00 0.00 0.00 0.00 0.00 0.00 0.00 0.00 0.00 0.00 0.00 0.00 0.00 0.00 0.00 0.00 0.00 0.00 0.00 0.00 0.00 0.00 0.00 0.00 0.00 0.00 0.00 0.00 0.00 0.00 0.00 0.00 0.00 0.00
0.00 0.00 0.00 0.00 0.00 0.00 0.00 0.00 0.00 0.00 0.00 0.00 0.00 0.00 0.00 0.00 0.01 0.01 0.00 0.00 0.00 0.00 0.00 0.00 0.00 0.00 0.00 0.00 0.00 0.00 0.00 0.00 0.00 0.00 0.00 0.00 0.00 0.00 0.00 0.00 0.00 0.00 0.00 0.00 0.00 0.00 0.00 0.00 0.00 0.00 0.00 0.00 0.00 0.00
0.00 0.00 0.00 0.01 0.00 0.00 0.00 0.00 0.00 0.00 0.00 0.00 0.00 0.01 0.01 0.00 0.00 0.00 0.00 0.00 0.00 0.00 0.00 0.00 0.00 0.00 0.00 0.00 0.00 0.00 0.00 0.00 0.00 0.00 0.00 0.00 0.00 0.00 0.00 0.00 0.00 0.00 0.00 0.00 0.00 0.00 0.00 0.00 0.00 0.00 0.00 0.00 0.00 0.00
0.00 0.00 0.00 0.00 0.00 0.00 0.00 0.00 0.00 0.00 0.00 0.00 0.01 0.02 0.02 0.00 0.00 0.00 0.00 0.00 0.00 0.00 0.00 0.00 0.00 0.00 0.00 0.00 0.00 0.00 0.00 0.00 0.00 0.00 0.00 0.00 0.00 0.00 0.00 0.00 0.00 0.00 0.00 0.00 0.00 0.00 0.00 0.00 0.00 0.00 0.00 0.00 0.00 0.00
MSLP
1019.52 1019.29 1018.89 1018.48 1017.96 1017.50 1017.16 1016.91 1016.65 1016.35 1016.32 1016.59 1016.77 1016.89 1017.03 1017.17 1017.13 1017.28 1017.14 1016.97 1017.16 1016.46 1014.77 1013.70 1013.19 1012.87 1012.77 1012.68 1012.55 1011.39 1010.49 1009.79 1008.70 1008.33 1008.87 1009.33 1009.41 1009.41 1009.82 1010.25 1010.71 1011.53 1012.52 1013.58 1013.85 1012.65 1011.11 1009.58 1009.76 1009.88 1010.09 1009.88 1009.98 1010.26
1019.08 1018.74 1018.46 1018.05 1017.52 1016.97 1016.78 1016.58 1016.48 1016.47 1016.56 1016.65 1016.78 1016.87 1016.95 1017.04 1017.10 1017.14 1017.37 1016.62 1016.81 1017.03 1014.78 1013.36 1012.59 1012.12 1012.01 1011.91 1012.01 1011.81 1011.61 1011.41 1009.97 1009.11 1009.19 1009.31 1009.62 1009.82 1010.00 1010.47 1010.39 1010.98 1010.77 1011.42 1011.84 1010.74 1009.80 1009.37 1009.33 1009.42 1009.58 1009.88 1009.92 1010.39
1018.66 1018.31 1017.95 1017.54 1017.16 1016.81 1016.60 1016.60 1016.66 1016.70 1016.73 1016.76 1016.81 1016.89 1016.93 1016.96 1017.02 1017.18 1017.26 1016.95 1016.78 1016.34 1014.23 1012.71 1011.16 1010.30 1010.38 1010.47 1010.84 1011.61 1010.92 1010.80 1010.13 1009.83 1009.62 1009.32 1009.11 1009.30 1010.05 1010.14 1010.06 1010.07 1010.10 1010.33 1010.76 1009.78 1009.34 1009.05 1009.10 1009.21 1009.40 1009.57 1009.88 1010.33
1018.25 1017.92 1017.58 1017.21 1016.91 1016.85 1016.77 1016.75 1016.79 1016.82 1016.83 1016.84 1016.79 1016.84 1016.83 1016.84 1016.88 1016.92 1017.22 1017.04 1016.92 1016.49 1015.18 1011.85 1010.26 1009.69 1009.08 1009.31 1009.66 1009.85 1010.00 1010.04 1010.29 1010.16 1009.73 1009.35 1008.98 1008.58 1008.95 1009.09 1009.32 1009.16 1009.56 1009.85 1009.70 1009.10 1008.86 1008.52 1008.80 1008.91 1009.29 1009.49 1009.91 1010.49
1017.86 1017.55 1017.24 1016.87 1016.73 1016.78 1016.80 1016.81 1016.84 1016.85 1016.78 1016.69 1016.71 1016.71 1016.75 1016.66 1016.64 1016.72 1016.78 1016.48 1016.35 1016.63 1015.21 1012.37 1010.30 1008.14 1007.87 1008.22 1008.53 1009.18 1009.71 1010.56 1011.06 1010.88 1010.14 1009.18 1008.15 1008.15 1008.91 1009.05 1008.74 1008.28 1008.45 1008.68 1008.28 1007.69 1007.78 1007.79 1007.99 1008.44 1009.07 1009.45 1009.95 1010.43
1017.48 1017.23 1016.94 1016.65 1016.65 1016.69 1016.76 1016.83 1016.83 1016.79 1016.78 1016.67 1016.66 1016.68 1016.61 1016.56 1016.54 1016.71 1016.43 1015.99 1015.89 1016.16 1015.35 1013.22 1010.07 1008.23 1007.59 1007.49 1008.12 1008.66 1009.59 1010.69 1010.92 1010.48 1009.57 1008.24 1007.37 1006.95 1008.67 1008.62 1007.19 1006.99 1006.92 1006.62 1006.74 1006.74 1007.08 1007.32 1007.63 1008.11 1008.73 1009.07 1009.48 1010.05
1017.19 1016.97 1016.76 1016.55 1016.57 1016.63 1016.71 1016.73 1016.74 1016.69 1016.68 1016.58 1016.50 1016.55 1016.44 1016.45 1016.67 1016.60 1016.20 1015.77 1015.67 1015.88 1015.22 1013.59 1011.06 1008.65 1007.55 1007.81 1008.39 1009.03 1009.65 1009.81 1009.71 1009.62 1008.88 1007.95 1007.37 1007.71 1007.73 1007.71 1006.14 1006.12 1006.16 1006.32 1006.34 1006.49 1006.98 1007.08 1007.30 1007.65 1008.28 1008.98 1009.56 1010.06
1016.92 1016.77 1016.53 1016.48 1016.52 1016.61 1016.59 1016.61 1016.58 1016.57 1016.54 1016.37 1016.35 1016.30 1016.23 1016.21 1016.18 1015.91 1014.80 1014.66 1015.51 1015.70 1015.18 1014.03 1011.34 1009.39 1007.59 1007.52 1007.83 1008.07 1008.94 1009.32 1008.75 1008.18 1007.92 1007.69 1007.60 1007.32 1007.18 1006.06 1005.77 1005.70 1005.80 1005.98 1005.98 1005.83 1005.73 1006.28 1007.11 1007.80 1008.37 1009.13 1009.64 1010.06
1016.62 1016.44 1016.25 1016.48 1016.57 1016.61 1016.55 1016.50 1016.43 1016.45 1016.33 1016.21 1016.14 1016.06 1016.18 1016.08 1015.87 1014.93 1014.27 1014.30 1014.63 1015.12 1014.50 1013.50 1011.94 1010.29 1008.49 1007.75 1007.47 1007.52 1007.41 1008.31 1007.94 1007.66 1007.54 1006.89 1007.30 1006.84 1005.67 1005.40 1005.50 1005.38 1005.21 1005.26 1005.86 1006.00 1006.23 1006.55 1006.99 1007.63 1008.27 1008.88 1009.46 1009.98
1016.38 1016.23 1016.10 1016.28 1016.46 1016.49 1016.55 1016.43 1016.37 1016.28 1016.15 1016.03 1016.10 1016.13 1015.55 1014.88 1014.38 1014.48 1014.38 1014.45 1014.48 1014.29 1014.20 1013.18 1012.17 1011.17 1010.13 1008.85 1007.57 1007.43 1006.73 1006.95 1007.33 1006.81 1006.59 1007.37 1007.20 1005.78 1005.07 1004.69 1004.78 1004.76 1004.87 1005.21 1005.82 1006.21 1006.45 1006.92 1007.37 1007.57 1007.80 1008.06 1008.39 1008.98
1016.07 1015.95 1015.92 1016.03 1016.17 1016.25 1016.32 1016.25 1016.23 1016.15 1016.00 1016.06 1015.97 1015.72 1014.88 1014.24 1014.32 1014.29 1013.91 1013.82 1013.65 1013.42 1012.97 1012.03 1011.50 1010.83 1009.51 1009.11 1008.18 1007.38 1006.97 1006.58 1006.76 1006.81 1006.89 1007.23 1007.31 1005.77 1004.83 1004.69 1004.48 1005.14 1004.89 1004.80 1004.43 1004.67 1005.24 1005.66 1006.58 1007.22 1007.71 1007.99 1008.40 1008.81
1015.84 1015.85 1015.81 1015.86 1015.94 1015.94 1016.03 1016.09 1016.15 1016.25 1016.15 1016.24 1016.30 1015.75 1015.17 1014.55 1014.26 1014.20 1013.20 1012.72 1012.55 1011.99 1011.50 1011.12 1010.54 1010.26 1009.45 1008.87 1008.40 1007.46 1007.24 1006.53 1006.92 1007.01 1006.86 1006.91 1006.05 1005.00 1004.87 1004.61 1004.32 1004.64 1005.04 1005.08 1004.89 1004.87 1005.14 1005.61 1005.99 1006.79 1007.28 1007.75 1008.08 1008.24
1015.67 1015.68 1015.68 1015.68 1015.71 1015.75 1015.87 1015.99 1016.01 1016.01 1016.01 1015.92 1015.84 1015.39 1014.78 1014.35 1013.64 1013.23 1012.34 1011.60 1011.23 1010.80 1010.65 1010.53 1010.29 1009.82 1009.57 1009.10 1008.77 1008.22 1007.92 1007.85 1007.34 1007.11 1006.87 1006.24 1005.86 1005.59 1005.42 1004.91 1004.70 1004.63 1004.89 1005.04 1005.05 1005.17 1005.12 1005.40 1005.92 1006.35 1006.91 1007.08 1007.64 1008.23
1015.45 1015.42 1015.39 1015.40 1015.47 1015.55 1015.69 1015.80 1015.86 1016.03 1016.25 1015.95 1015.33 1014.96 1014.39 1013.65 1012.82 1012.20 1011.63 1011.14 1010.66 1010.53 1010.51 1010.39 1010.22 1009.76 1009.10 1009.04 1009.07 1009.14 1008.75 1008.09 1007.67 1007.34 1006.84 1006.67 1006.57 1006.16 1005.45 1005.07 1004.95 1004.77 1004.84 1004.87 1004.95 1005.14 1005.32 1005.54 1005.76 1006.07 1006.41 1006.71 1007.14 1007.68
1015.21 1015.21 1015.19 1015.20 1015.25 1015.45 1015.58 1015.70 1015.87 1016.10 1016.00 1015.62 1015.09 1014.33 1013.72 1012.83 1012.06 1011.38 1011.03 1010.78 1010.36 1010.36 1010.19 1010.07 1009.81 1009.64 1008.96 1008.86 1008.85 1009.25 1009.17 1008.89 1008.44 1007.53 1007.34 1007.19 1006.92 1006.53 1006.00 1005.57 1005.25 1005.05 1004.98 1004.98 1004.96 1005.16 1005.33 1005.47 1005.63 1005.82 1006.07 1006.45 1006.79 1007.16
1015.13 1015.12 1015.08 1014.96 1015.12 1015.35 1015.53 1015.81 1016.07 1016.14 1015.64 1015.17 1014.63 1013.83 1012.86 1012.60 1011.83 1011.27 1010.79 1010.49 1010.19 1010.01 1009.96 1009.92 1009.65 1009.32 1009.30 1008.82 1008.58 1008.26 1007.98 1007.90 1007.73 1007.57 1007.49 1007.29 1007.29 1007.24 1006.83 1006.46 1006.17 1005.79 1005.66 1005.55 1005.28 1005.23 1005.19 1005.30 1005.58 1005.68 1005.98 1006.25 1006.51 1006.71
1015.13 1015.06 1014.75 1014.73 1015.03 1015.34 1015.62 1015.92 1016.07 1015.78 1015.13 1014.43 1013.68 1013.07 1012.82 1012.40 1011.69 1010.95 1010.48 1010.06 1009.94 1010.12 1009.87 1009.69 1009.47 1009.19 1009.21 1008.97 1008.56 1007.93 1007.55 1007.29 1007.37 1007.34 1007.37 1007.64 1007.78 1007.70 1007.16 1006.78 1006.48 1006.08 1005.86 1005.61 1005.51 1005.50 1005.54 1005.52 1005.51 1005.75 1005.93 1005.84 1006.04 1006.17
1015.19 1014.90 1014.69 1014.90 1015.23 1015.61 1015.77 1015.73 1015.45 1014.98 1014.39 1013.55 1013.34 1012.48 1012.09 1011.55 1011.06 1010.61 1010.24 1009.85 1010.04 1009.91 1009.69 1009.27 1009.04 1009.18 1008.87 1008.48 1008.13 1007.69 1007.13 1006.97 1007.28 1007.35 1007.53 1007.81 1007.54 1007.37 1007.36 1007.11 1006.76 1006.58 1006.49 1006.36 1006.19 1006.03 1005.93 1005.92 1005.65 1005.56 1005.44 1005.70 1005.94 1006.01
1015.14 1015.09 1015.06 1015.15 1015.28 1015.44 1015.57 1015.37 1015.24 1014.55 1013.46 1012.95 1012.39 1011.94 1011.56 1010.88 1010.24 1009.86 1009.68 1009.59 1009.61 1009.52 1009.49 1009.30 1009.20 1008.91 1008.50 1007.97 1007.54 1007.56 1007.58 1007.67 1007.78 1007.78 1007.84 1007.75 1007.71 1007.73 1007.64 1007.43 1007.30 1007.10 1006.95 1006.84 1006.63 1006.44 1006.13 1005.89 1005.77 1005.54 1005.26 1005.07 1005.48 1005.66
1015.06 1015.03 1015.09 1015.11 1015.26 1015.08 1014.78 1014.51 1014.38 1014.07 1013.13 1012.22 1011.90 1011.56 1011.11 1010.53 1009.95 1009.66 1009.51 1009.50 1009.57 1009.60 1009.64 1009.35 1008.86 1008.29 1007.93 1007.58 1007.38 1007.37 1007.40 1007.34 1007.56 1007.71 1007.74 1007.66 1007.73 1007.74 1007.56 1007.48 1007.47 1007.43 1007.30 1007.14 1006.95 1006.67 1006.28 1005.80 1005.39 1005.33 1005.31 1005.07 1004.96 1005.04
1014.89 1014.77 1014.95 1015.11 1015.19 1015.05 1014.83 1014.16 1013.72 1012.94 1012.34 1012.05 1011.36 1011.19 1010.71 1010.30 1009.96 1009.71 1009.59 1009.43 1009.69 1009.49 1009.26 1008.61 1008.18 1007.65 1007.53 1007.43 1007.26 1007.22 1007.33 1007.48 1007.56 1007.67 1007.72 1007.71 1007.62 1007.58 1007.48 1007.45 1007.35 1007.26 1007.32 1007.37 1007.30 1006.95 1006.66 1006.36 1005.88 1005.54 1005.22 1004.88 1004.61 1004.52
1014.73 1014.74 1014.99 1015.11 1015.07 1014.69 1014.52 1013.79 1013.44 1012.59 1012.36 1011.50 1011.24 1010.86 1010.56 1010.15 1009.73 1009.39 1009.27 1009.36 1009.09 1008.41 1008.09 1007.79 1007.49 1007.27 1007.39 1007.31 1007.05 1007.01 1006.90 1006.98 1007.14 1007.28 1007.32 1007.47 1007.63 1007.66 1007.52 1007.43 1007.41 1007.42 1007.31 1007.17 1007.05 1006.99 1006.58 1006.18 1005.79 1005.35 1005.08 1004.79 1004.73 1004.71
1014.92 1014.85 1014.75 1014.76 1014.87 1014.44 1013.78 1013.29 1013.11 1012.13 1011.93 1011.10 1010.79 1010.46 1010.03 1009.64 1009.03 1008.88 1008.86 1008.65 1008.03 1007.50 1007.42 1007.31 1006.98 1006.72 1006.78 1006.66 1006.82 1006.81 1006.77 1006.80 1007.14 1007.06 1007.07 1007.27 1007.23 1007.21 1007.23 1007.20 1007.24 1007.37 1007.30 1007.01 1006.95 1006.71 1006.38 1006.03 1005.74 1005.41 1005.26 1005.16 1005.10 1005.36
1014.79 1014.84 1014.59 1014.42 1014.48 1014.15 1013.38 1012.83 1012.20 1011.68 1011.03 1010.65 1010.29 1009.92 1009.31 1008.97 1008.66 1008.34 1008.10 1008.04 1007.46 1007.11 1007.11 1006.97 1006.84 1006.70 1006.67 1006.64 1006.65 1006.61 1006.46 1006.59 1006.67 1006.78 1006.85 1007.05 1007.23 1007.13 1007.10 1007.05 1007.12 1007.19 1007.20 1007.08 1006.84 1006.53 1006.15 1005.96 1005.81 1005.70 1005.58 1005.50 1005.41 1005.33
1015.10 1014.98 1015.03 1014.49 1014.00 1013.77 1012.76 1011.92 1011.43 1011.09 1010.64 1010.33 1009.73 1009.25 1008.86 1008.63 1008.46 1008.10 1007.84 1007.56 1007.34 1007.04 1006.75 1006.53 1006.46 1006.41 1006.42 1006.30 1006.24 1006.17 1006.04 1006.27 1006.43 1006.53 1006.43 1006.69 1006.73 1006.85 1007.08 1007.13 1007.15 1007.09 1007.10 1006.97 1006.62 1006.35 1005.98 1005.80 1005.68 1005.70 1005.68 1005.67 1005.62 1005.48
1014.92 1014.65 1014.65 1013.68 1013.28 1013.03 1012.08 1011.40 1010.70 1010.43 1010.10 1009.47 1009.07 1008.69 1008.40 1008.36 1008.01 1007.93 1007.76 1007.56 1007.26 1006.93 1006.63 1006.52 1006.43 1006.35 1006.29 1006.23 1006.28 1006.24 1006.14 1005.97 1006.02 1006.28 1006.30 1006.32 1006.48 1006.66 1006.88 1007.03 1007.19 1007.20 1007.00 1006.87 1006.68 1006.29 1006.02 1005.88 1005.83 1005.78 1005.73 1005.85 1006.07 1006.35
1014.71 1014.32 1013.87 1013.27 1012.89 1012.26 1011.57 1010.73 1010.25 1010.14 1009.80 1009.24 1008.99 1008.65 1008.27 1008.14 1008.03 1007.82 1007.50 1007.30 1007.17 1006.77 1006.68 1006.55 1006.42 1006.41 1006.48 1006.43 1006.38 1006.31 1006.11 1006.00 1005.98 1006.05 1006.11 1006.17 1006.33 1006.34 1006.48 1006.79 1006.99 1007.12 1006.96 1006.78 1006.67 1006.54 1006.39 1006.26 1006.28 1006.46 1006.42 1006.37 1006.45 1006.61
1014.23 1014.05 1013.84 1013.25 1012.73 1011.99 1011.45 1010.71 1010.18 1009.75 1009.35 1009.20 1008.96 1008.76 1008.64 1008.39 1008.13 1007.69 1007.42 1006.96 1006.80 1006.68 1006.63 1006.53 1006.42 1006.37 1006.37 1006.44 1006.41 1006.38 1006.43 1006.37 1006.35 1006.37 1006.38 1006.55 1006.67 1006.69 1006.82 1007.03 1007.21 1007.13 1007.00 1006.91 1006.90 1006.86 1006.94 1006.88 1006.77 1006.79 1006.89 1007.01 1007.14 1007.29
1014.02 1013.56 1013.42 1012.94 1012.34 1011.64 1010.87 1010.28 1009.90 1009.47 1009.43 1009.28 1009.20 1008.93 1008.51 1008.16 1007.67 1007.34 1007.08 1007.01 1006.82 1006.75 1006.73 1006.73 1006.71 1006.51 1006.50 1006.50 1006.51 1006.51 1006.57 1006.66 1006.68 1006.84 1007.02 1007.27 1007.35 1007.64 1007.58 1007.57 1007.54 1007.46 1007.42 1007.34 1007.35 1007.32 1007.35 1007.43 1007.52 1007.62 1007.77 1007.80 1008.00 1008.19
1013.23 1012.84 1012.76 1012.13 1011.63 1010.81 1009.99 1009.64 1009.56 1009.37 1009.22 1009.16 1009.09 1008.83 1008.58 1008.11 1006.89 1006.89 1007.14 1007.14 1007.02 1006.90 1006.77 1006.83 1006.92 1006.89 1006.88 1006.77 1006.89 1006.90 1006.69 1006.63 1006.68 1006.84 1007.08 1007.31 1007.45 1007.65 1007.75 1007.81 1007.76 1007.72 1007.68 1007.56 1007.61 1007.78 1007.77 1007.83 1007.99 1007.99 1008.14 1008.36 1008.75 1008.94
1012.26 1012.17 1011.80 1011.27 1010.72 1010.02 1009.68 1009.59 1009.39 1009.25 1009.20 1009.10 1008.93 1008.88 1008.56 1008.09 1007.32 1006.86 1006.86 1006.79 1006.73 1006.59 1006.65 1006.80 1006.88 1006.97 1006.94 1006.93 1006.91 1007.04 1007.09 1006.95 1006.81 1006.82 1007.03 1007.11 1007.29 1007.47 1007.58 1007.70 1007.77 1007.72 1007.67 1007.65 1007.69 1007.81 1007.92 1008.02 1008.12 1008.23 1008.38 1008.50 1008.67 1008.78
1011.42 1011.28 1011.07 1010.86 1010.25 1009.76 1009.43 1009.36 1009.26 1009.17 1009.08 1008.99 1008.75 1008.69 1008.42 1008.11 1007.71 1007.08 1006.76 1006.71 1006.72 1006.72 1006.81 1006.93 1006.88 1006.97 1006.88 1006.80 1006.82 1006.85 1006.92 1007.10 1007.21 1007.33 1007.43 1007.52 1007.61 1007.60 1007.64 1007.71 1007.70 1007.71 1007.71 1007.62 1007.61 1007.70 1007.78 1007.93 1008.14 1008.25 1008.29 1008.36 1008.50 1008.66
1010.83 1010.71 1010.60 1010.51 1010.06 1009.60 1009.36 1009.23 1009.07 1008.97 1008.82 1008.72 1008.59 1008.43 1008.18 1008.00 1007.64 1006.98 1006.48 1006.59 1006.74 1006.68 1006.75 1006.88 1006.92 1006.92 1006.99 1007.04 1007.06 1007.16 1007.21 1007.26 1007.31 1007.53 1007.67 1007.70 1007.67 1007.69 1007.67 1007.67 1007.72 1007.68 1007.68 1007.74 1007.76 1007.77 1007.79 1007.88 1008.03 1008.18 1008.38 1008.59 1008.79 1008.88
Thickness
5593 5592 5592 5591 5592 5591 5590 5588 5587 5588 5586 5581 5578 5575 5573 5572 5572 5571 5572 5572 5571 5581 5591 5601 5602 5600 5606 5616 5623 5643 5655 5669 5681 5686 5683 5677 5677 5681 5683 5684 5680 5675 5660 5649 5639 5648 5651 5691 5686 5675 5678 5686 5687 5685
5585 5584 5582 5582 5582 5583 5581 5579 5577 5576 5573 5570 5567 5566 5565 5564 5562 5562 5561 5567 5565 5562 5583 5591 5598 5602 5604 5612 5620 5629 5639 5645 5663 5675 5675 5674 5676 5674 5676 5673 5680 5674 5678 5666 5663 5662 5684 5688 5690 5691 5687 5685 5688 5684
5575 5574 5573 5573 5572 5572 5570 5568 5565 5563 5561 5560 5558 5556 5555 5555 5554 5553 5552 5556 5558 5563 5578 5588 5600 5609 5612 5617 5626 5621 5637 5647 5661 5669 5668 5674 5686 5676 5671 5670 5682 5687 5681 5677 5678 5686 5685 5689 5691 5693 5692 5691 5690 5687
5564 5564 5563 5563 5562 5560 5558 5556 5554 5553 5551 5549 5549 5549 5548 5547 5547 5547 5545 5548 5548 5552 5566 5586 5602 5606 5616 5618 5628 5639 5642 5649 5654 5660 5664 5669 5679 5683 5673 5684 5682 5688 5685 5674 5677 5688 5690 5694 5692 5694 5693 5692 5690 5687
5553 5553 5552 5553 5552 5550 5548 5546 5544 5543 5543 5542 5541 5541 5541 5542 5542 5543 5543 5546 5546 5543 5559 5574 5593 5615 5619 5623 5631 5635 5638 5639 5640 5643 5654 5664 5678 5685 5670 5674 5680 5691 5686 5680 5678 5697 5695 5697 5700 5698 5693 5692 5689 5686
5542 5542 5542 5542 5540 5539 5537 5536 5535 5534 5534 5535 5534 5534 5535 5536 5537 5538 5540 5543 5542 5538 5546 5561 5589 5607 5616 5621 5623 5628 5628 5626 5633 5640 5655 5669 5683 5684 5668 5667 5696 5701 5701 5709 5707 5705 5702 5704 5702 5701 5696 5695 5694 5691
5531 5531 5530 5531 5530 5528 5527 5526 5526 5527 5527 5528 5529 5529 5531 5531 5531 5532 5538 5540 5537 5534 5542 5555 5574 5600 5615 5614 5615 5619 5621 5628 5635 5641 5654 5667 5676 5669 5665 5669 5702 5704 5706 5707 5709 5706 5703 5704 5702 5703 5701 5696 5694 5692
5520 5520 5521 5521 5520 5518 5518 5519 5519 5520 5521 5523 5524 5525 5526 5528 5530 5532 5541 5541 5533 5531 5537 5550 5573 5588 5612 5613 5617 5623 5620 5626 5637 5650 5655 5661 5664 5664 5668 5689 5699 5707 5707 5707 5705 5711 5712 5708 5703 5700 5698 5693 5690 5688
5514 5513 5514 5511 5510 5509 5509 5511 5512 5513 5515 5518 5519 5521 5522 5524 5525 5532 5539 5539 5536 5533 5543 5553 5565 5575 5600 5607 5615 5623 5629 5625 5637 5646 5651 5662 5654 5661 5685 5691 5694 5698 5705 5708 5704 5707 5702 5703 5701 5698 5697 5693 5689 5686
5508 5507 5507 5504 5502 5502 5501 5503 5505 5507 5510 5513 5515 5518 5526 5526 5534 5533 5535 5536 5535 5535 5537 5550 5561 5568 5581 5594 5611 5618 5629 5629 5631 5648 5653 5645 5647 5673 5686 5694 5697 5699 5701 5701 5697 5696 5694 5693 5692 5694 5697 5698 5697 5693
5502 5501 5500 5497 5496 5495 5496 5497 5499 5502 5507 5509 5514 5519 5524 5529 5531 5531 5540 5540 5542 5545 5547 5556 5562 5571 5586 5589 5602 5613 5621 5628 5631 5638 5640 5631 5636 5667 5689 5692 5694 5689 5694 5699 5707 5707 5703 5702 5693 5691 5692 5694 5693 5692
5497 5495 5494 5492 5491 5491 5492 5493 5495 5497 5501 5504 5506 5511 5517 5526 5529 5531 5543 5548 5548 5555 5558 5563 5569 5573 5583 5592 5599 5611 5616 5627 5625 5629 5633 5629 5653 5676 5678 5684 5690 5687 5687 5689 5694 5697 5697 5696 5696 5692 5692 5691 5691 5693
5492 5490 5489 5488 5487 5487 5488 5490 5492 5495 5498 5502 5508 5516 5525 5529 5532 5543 5550 5555 5559 5564 5565 5567 5569 5577 5580 5590 5596 5602 5604 5606 5617 5625 5629 5643 5654 5659 5665 5672 5678 5681 5681 5683 5685 5686 5690 5692 5690 5690 5689 5691 5690 5687
5488 5487 5486 5485 5484 5485 5486 5487 5490 5493 5495 5502 5515 5510 5528 5537 5542 5544 5550 5557 5562 5563 5563 5565 5565 5572 5583 5586 5588 5589 5596 5604 5609 5617 5634 5639 5642 5647 5658 5664 5669 5675 5675 5677 5679 5680 5680 5682 5685 5686 5686 5686 5687 5685
5486 5484 5484 5483 5483 5484 5485 5486 5489 5490 5495 5505 5513 5519 5523 5532 5542 5551 5555 5556 5560 5561 5565 5567 5568 5570 5579 5584 5585 5583 5587 5589 5600 5614 5622 5626 5632 5639 5650 5657 5660 5664 5667 5671 5675 5675 5675 5676 5678 5681 5681 5680 5682 5682
5482 5482 5482 5482 5482 5483 5484 5484 5485 5488 5496 5505 5510 5520 5531 5535 5541 5543 5553 5555 5559 5563 5564 5565 5570 5572 5574 5580 5584 5592 5599 5600 5608 5613 5618 5623 5627 5632 5638 5644 5649 5654 5657 5660 5665 5668 5671 5672 5672 5674 5674 5673 5674 5675
5479 5479 5481 5481 5481 5481 5481 5482 5483 5492 5500 5510 5518 5520 5525 5529 5541 5548 5554 5559 5560 5560 5565 5567 5570 5573 5574 5574 5578 5588 5598 5608 5610 5614 5617 5618 5620 5624 5630 5636 5641 5647 5651 5655 5658 5659 5661 5665 5667 5668 5668 5668 5668 5670
5476 5477 5478 5477 5477 5476 5478 5482 5490 5499 5506 5512 5515 5527 5528 5537 5543 5550 5554 5559 5559 5560 5565 5570 5573 5572 5574 5576 5582 5587 5597 5606 5608 5611 5613 5613 5619 5622 5625 5629 5635 5638 5642 5644 5647 5649 5653 5655 5659 5661 5664 5661 5660 5662
5473 5473 5473 5473 5474 5476 5478 5484 5487 5499 5511 5516 5520 5523 5529 5538 5545 5552 5556 5556 5558 5560 5563 5566 5569 5570 5576 5582 5591 5593 5595 5598 5600 5603 5606 5610 5612 5614 5618 5623 5626 5629 5632 5634 5637 5639 5642 5646 5648 5651 5656 5658 5657 5657
5471 5471 5471 5472 5474 5480 5489 5495 5492 5499 5511 5521 5521 5527 5532 5541 5546 5550 5554 5555 5556 5558 5561 5563 5567 5574 5579 5586 5589 5592 5594 5598 5600 5602 5604 5606 5606 5609 5614 5617 5619 5621 5624 5627 5629 5630 5635 5640 5643 5644 5647 5652 5654 5655
5471 5472 5472 5472 5475 5479 5485 5495 5504 5511 5518 5519 5526 5527 5534 5533 5539 5544 5547 5547 5550 5552 5556 5562 5569 5577 5579 5583 5587 5591 5593 5594 5596 5598 5600 5602 5604 5606 5610 5612 5614 5617 5618 5618 5620 5623 5624 5627 5631 5635 5638 5645 5649 5652
5473 5472 5472 5474 5477 5484 5489 5493 5499 5509 5512 5523 5524 5526 5531 5535 5542 5547 5548 5548 5550 5558 5560 5566 5571 5576 5577 5581 5587 5590 5594 5595 5595 5595 5595 5596 5600 5602 5605 5605 5607 5609 5610 5612 5613 5614 5617 5620 5623 5630 5634 5637 5639 5642
5472 5474 5477 5479 5483 5487 5494 5498 5507 5516 5524 5530 5531 5541 5544 5546 5551 5552 5555 5554 5562 5568 5566 5568 5573 5577 5579 5582 5583 5585 5588 5590 5590 5592 5594 5594 5596 5597 5596 5599 5600 5602 5604 5605 5605 5608 5611 5613 5618 5622 5624 5626 5628 5627
5475 5478 5484 5490 5489 5487 5499 5509 5512 5522 5532 5541 5545 5546 5552 5553 5555 5559 5564 5564 5568 5569 5568 5571 5571 5574 5576 5580 5580 5584 5586 5586 5589 5590 5589 5591 5592 5592 5592 5593 5594 5593 5594 5595 5597 5601 5605 5608 5607 5612 5613 5615 5619 5621
5477 5479 5477 5478 5488 5499 5519 5528 5530 5535 5542 5544 5548 5552 5554 5557 5559 5564 5566 5570 5568 5572 5575 5577 5577 5579 5580 5582 5584 5584 5586 5585 5587 5588 5589 5588 5588 5586 5585 5584 5585 5586 5586 5588 5592 5595 5598 5600 5602 5603 5605 5607 5609 5612
5477 5484 5482 5507 5508 5509 5520 5534 5541 5543 5545 5552 5555 5558 5560 5561 5565 5565 5567 5568 5570 5573 5576 5577 5578 5580 5582 5582 5583 5584 5585 5585 5587 5587 5587 5585 5584 5585 5583 5582 5580 5580 5581 5582 5584 5588 5590 5591 5592 5593 5594 5593 5591 5592
5482 5485 5490 5495 5508 5519 5531 5539 5544 5545 5547 5554 5552 5559 5564 5565 5564 5567 5569 5571 5572 5576 5577 5578 5579 5579 5579 5580 5581 5581 5583 5584 5586 5585 5584 5583 5582 5582 5582 5579 5578 5576 5576 5579 5580 5581 5581 5582 5581 5577 5579 5581 5583 5583
5488 5488 5494 5503 5509 5519 5533 5542 5546 5550 5555 5556 5559 5561 5561 5563 5565 5570 5571 5576 5577 5578 5578 5580 5581 5581 5582 5581 5581 5581 5581 5580 5580 5580 5581 5579 5577 5577 5576 5574 5571 5570 5572 5572 5572 5572 5571 5570 5571 5568 5568 5569 5569 5569
5485 5492 5496 5507 5517 5526 5539 5546 5550 5555 5555 5556 5557 5560 5565 5569 5572 5575 5577 5578 5579 5580 5580 5580 5581 5581 5581 5581 5580 5579 5578 5578 5580 5576 5572 5569 5570 5568 5566 5565 5565 5565 5565 5565 5562 5563 5563 5562 5562 5560 5559 5558 5555 5554
5495 5499 5506 5518 5529 5539 5548 5552 5555 5556 5558 5559 5560 5563 5566 5570 5579 5580 5578 5578 5579 5580 5580 5579 5578 5580 5579 5579 5578 5578 5577 5577 5576 5576 5571 5568 5569 5565 5563 5562 5562 5561 5561 5561 5560 5557 5555 5555 5553 5554 5553 5551 5547 5544
5506 5511 5525 5535 5541 5547 5552 5552 5554 5558 5560 5562 5564 5565 5568 5572 5577 5581 5581 5581 5581 5583 5583 5582 5580 5579 5580 5580 5579 5577 5575 5575 5576 5576 5574 5571 5568 5566 5564 5562 5561 5560 5560 5559 5558 5557 5555 5554 5552 5551 5549 5548 5546 5546
5523 5529 5534 5538 5546 5548 5554 5556 5558 5560 5562 5565 5568 5565 5568 5571 5576 5580 5583 5583 5584 5584 5582 5581 5582 5581 5579 5579 5578 5578 5576 5574 5573 5571 5569 5567 5566 5565 5564 5563 5562 5561 5560 5560 5559 5558 5558 5556 5553 5551 5551 5550 5549 5548
5532 5535 5538 5540 5545 5554 5556 5559 5562 5565 5566 5567 5568 5569 5569 5572 5577 5582 5586 5585 5585 5585 5584 5582 5581 5580 5579 5578 5577 5574 5572 5571 5570 5567 5566 5565 5564 5564 5563 5563 5562 5561 5561 5560 5559 5558 5558 5556 5555 5553 5551 5548 5545 5544